This demonstration page uses our WeatherBlox Daily Observations layout. Learn more.

Left ArrowRight Arrow

39.12711, -84.51439

Hourly Observations for August 13, 2016

Temp ( °F °C ) Dew Point ( °F °C ) Humidity (%) Winds ( mph kmh ) Pressure ( in mb ) Visibility ( mi km ) Precip ( " mm )
12:53 am 00:53 Clear 76 24.4 76 24.4 100 100 N N/A 29.89 1012 10 16 N/A
1:53 am 01:53 Clear 75 23.9 75 23.9 100 100 S 3 6 29.88 1012 8 13 N/A
2:53 am 02:53 Clear 76 24.4 75 23.9 97 97 S 7 11 29.87 1011 10 16 N/A
3:53 am 03:53 Cloudy 76 24.4 75 23.9 97 97 S 3 6 29.87 1011 10 16 N/A
4:53 am 04:53 Cloudy 78 25.6 75 23.9 90 90 SSE 6 9 29.87 1012 10 16 N/A
5:53 am 05:53 Partly Cloudy 76 24.4 75 23.9 97 97 S 7 11 29.87 1012 10 16 N/A
6:53 am 06:53 Mostly Cloudy 77 25 74 23.3 90 90 SSW 8 13 29.87 1012 10 16 N/A
7:53 am 07:53 Mostly Cloudy 79 26.1 75 23.9 88 88 S 8 13 29.89 1012 10 16 N/A
8:53 am 08:53 Cloudy 79 26.1 74 23.3 85 85 S 10 17 29.90 1013 10 16 N/A
9:53 am 09:53 Mostly Cloudy 80 26.7 73 22.8 79 79 S 14 22 29.90 1013 10 16 N/A
10:53 am 10:53 Mostly Cloudy 83 28.3 75 23.9 77 77 SW 13 20 29.89 1012 10 16 N/A
11:53 am 11:53 Cloudy 83 28.3 75 23.9 77 77 SW 13 20 29.91 1013 10 16 N/A
12:53 pm 12:53 Cloudy 83 28.3 74 23.3 74 74 SW 16 26 29.91 1013 10 16 N/A
1:53 pm 13:53 Cloudy 84 28.9 75 23.9 74 74 SSW 13 20 29.90 1013 10 16 N/A
2:53 pm 14:53 Cloudy 86 30 76 24.4 72 72 SSW 21 33 29.89 1012 10 16 N/A
3:53 pm 15:53 Mostly Cloudy 86 30 75 23.9 70 70 SSW 18 30 29.89 1012 10 16 N/A
4:53 pm 16:53 Mostly Cloudy 84 28.9 74 23.3 72 72 SSW 15 24 29.89 1012 10 16 N/A
5:53 pm 17:53 Mostly Cloudy 81 27.2 75 23.9 82 82 SSW 12 19 29.90 1013 10 16 0.01 0.25
6:53 pm 18:53 Cloudy 79 26.1 76 24.4 90 90 SW 8 13 29.92 1013 10 16 0.02 0.51
7:53 pm 19:53 Cloudy 77 25 76 24.4 96 96 SW 6 9 29.93 1014 10 16 0.03 0.76
8:53 pm 20:53 Cloudy 76 24.4 76 24.4 100 100 SSW 5 7 29.95 1014 10 16 N/A
9:53 pm 21:53 Mostly Cloudy 75 23.9 75 23.9 100 100 SSW 6 9 29.96 1015 10 16 N/A
10:53 pm 22:53 Mostly Cloudy with Light Rain 76 24.4 74 23.3 94 94 WSW 9 15 29.96 1015 10 16 N/A
11:53 pm 23:53 Cloudy 76 24.4 75 23.9 97 97 N N/A 29.98 1015 10 16 N/A

Powered by AerisWeather